Chicago DuPage, IL

11:35 PM CST on December 13, 2019 (GMT -0600)
Du Page

Weather History for KDPA - November, 2019

Change the Weather History Date:

Tuesday, November 19, 2019

  Actual Average Record
Temperature  
Mean Temperature 37 °F 39 °F  
Max Temperature 40 °F 47 °F 59 °F (2012)
Min Temperature 34 °F 30 °F 15 °F (2014)
Degree Days  
Heating Degree Days 28 26  
Month to date heating degree days 640 418  
Since 1 July heating degree days 1082 929  
Cooling Degree Days 0 0  
Month to date cooling degree days 0 0  
Year to date cooling degree days 1003 814  
Moisture  
Dew Point 33 °F    
Average Humidity 86    
Maximum Humidity 93    
Minimum Humidity 79    
Precipitation  
Precipitation 0.02 in 0.09 in 0.27 in (2004)
Month to date precipitation 0.15 2.03  
Year to date precipitation 40.58 34.14  
Sea Level Pressure  
Sea Level Pressure 29.84 in    
Wind  
Wind Speed 3 mph (NNW)    
Max Wind Speed 9 mph    
Max Gust Speed 13 mph    
Visibility 6 miles    
Events Rain    
T = Trace of Precipitation, MM = Missing Value Source: NWS Daily Summary

Daily Weather History Graph

Daily Weather History Graph

Search for Another Location

Airport or City:

Astronomy

Nov. 19, 2019 Rise Set
Actual Time 6:47 AM CST 4:29 PM CST
Civil Twilight 6:17 AM CST 4:59 PM CST
Nautical Twilight 5:43 AM CST 5:33 PM CST
Astronomical Twilight 5:09 AM CST 6:06 PM CST
Moon 11:25 PM CST (11/19) 12:57 PM CST (11/19)
Length of Visible Light 10h 42m
Length of Day
9h 41m
Waning Gibbous, 51% of the Moon is Illuminated
Nov 19
Waning Gibbous
Nov 19
Last Quarter
Nov 26
New
Dec 4
First Quarter
Dec 11
Full

Hourly Weather History & Observations

Time (CST) Temp. Windchill Dew Point Humidity Pressure Visibility Wind Dir Wind Speed Gust Speed Precip Events Conditions
12:27 AM 35.1 °F 27.9 °F 30.0 °F 82% 29.75 in 10.0 mi SSW 9.2 mph - N/A   Overcast
12:52 AM 35.1 °F 27.9 °F 30.0 °F 82% 29.76 in 10.0 mi WSW 9.2 mph - N/A   Overcast
1:08 AM 35.1 °F 31.0 °F 30.0 °F 82% 29.74 in 10.0 mi SSW 4.6 mph - N/A   Overcast
1:52 AM 35.1 °F 32.2 °F 30.0 °F 82% 29.75 in 10.0 mi South 3.5 mph - N/A   Overcast
2:52 AM 34.0 °F 29.8 °F 28.9 °F 82% 29.75 in 10.0 mi SSW 4.6 mph - N/A   Overcast
3:52 AM 34.0 °F 31.0 °F 28.9 °F 82% 29.75 in 10.0 mi SE 3.5 mph - N/A   Overcast
4:52 AM 34.0 °F 31.0 °F 30.0 °F 85% 29.75 in 9.0 mi East 3.5 mph - N/A   Overcast
5:50 AM 33.8 °F 28.6 °F 30.2 °F 87% 29.73 in 9.0 mi ENE 5.8 mph - N/A   Overcast
5:52 AM 34.0 °F 28.8 °F 30.0 °F 85% 29.75 in 9.0 mi ENE 5.8 mph - N/A   Overcast
6:06 AM 35.1 °F 32.2 °F 30.0 °F 82% 29.74 in 9.0 mi Variable 3.5 mph - N/A   Overcast
6:39 AM 35.1 °F 32.2 °F 30.0 °F 82% 29.75 in 9.0 mi ENE 3.5 mph - N/A   Overcast
6:52 AM 35.1 °F 31.0 °F 30.0 °F 82% 29.78 in 9.0 mi ENE 4.6 mph - N/A   Overcast
7:04 AM 35.1 °F 30.1 °F 30.0 °F 82% 29.76 in 7.0 mi ENE 5.8 mph - N/A   Overcast
7:32 AM 35.1 °F 31.0 °F 30.9 °F 85% 29.76 in 7.0 mi ENE 4.6 mph - N/A   Overcast
8:52 AM 37.0 °F 34.5 °F 30.9 °F 79% 29.79 in 6.0 mi ENE 3.5 mph - N/A   Haze
9:52 AM 37.9 °F 34.4 °F 32.0 °F 79% 29.80 in 6.0 mi ESE 4.6 mph - 0.00 in Rain Light Rain
10:52 AM 39.0 °F - 34.0 °F 82% 29.81 in 6.0 mi Calm Calm - 0.00 in Rain Light Rain
11:52 AM 39.9 °F 37.8 °F 34.0 °F 79% 29.82 in 7.0 mi NNW 3.5 mph - 0.00 in Rain Light Rain
12:47 PM 39.2 °F 37.0 °F 35.6 °F 87% 29.81 in 4.0 mi North 3.5 mph - 0.01 in Rain Light Rain
12:52 PM 39.9 °F 37.8 °F 35.1 °F 83% 29.83 in 4.0 mi NNW 3.5 mph - 0.01 in Rain Light Rain
1:10 PM 39.0 °F 36.8 °F 35.1 °F 86% 29.82 in 2.0 mi North 3.5 mph - 0.00 in Rain Light Rain
1:13 PM 39.0 °F 36.8 °F 36.0 °F 89% 29.82 in 1.8 mi NNW 3.5 mph - 0.00 in Rain Light Rain
1:25 PM 39.0 °F 36.8 °F 36.0 °F 89% 29.82 in 1.8 mi NNW 3.5 mph - 0.01 in Rain Light Rain
1:33 PM 39.0 °F 36.8 °F 36.0 °F 89% 29.82 in 2.0 mi North 3.5 mph - 0.01 in Rain Light Rain
1:52 PM 39.0 °F - 37.0 °F 93% 29.85 in 2.0 mi Calm Calm - 0.01 in   Overcast
2:10 PM 39.0 °F - 36.0 °F 89% 29.83 in 3.0 mi Calm Calm - 0.00 in Rain Light Rain
2:52 PM 39.9 °F - 37.0 °F 89% 29.87 in 5.0 mi Calm Calm - 0.00 in Rain Light Rain
3:02 PM 39.9 °F 36.7 °F 36.0 °F 86% 29.86 in 4.0 mi NW 4.6 mph - 0.00 in   Overcast
3:18 PM 39.9 °F 36.7 °F 36.0 °F 86% 29.87 in 5.0 mi NW 4.6 mph - 0.00 in Rain Light Rain
3:52 PM 39.0 °F 34.8 °F 36.0 °F 89% 29.90 in 5.0 mi WNW 5.8 mph - 0.00 in Rain Light Rain
4:52 PM 39.0 °F 34.8 °F 36.0 °F 89% 29.92 in 6.0 mi WNW 5.8 mph - 0.00 in   Overcast
5:52 PM 37.9 °F - 36.0 °F 93% 29.94 in 6.0 mi Calm Calm - N/A   Overcast
6:02 PM 37.9 °F 35.5 °F 36.0 °F 93% 29.92 in 6.0 mi West 3.5 mph - N/A   Overcast
6:52 PM 37.9 °F 34.4 °F 35.1 °F 89% 29.96 in 6.0 mi NW 4.6 mph - N/A   Overcast
7:52 PM 37.0 °F - 35.1 °F 93% 29.97 in 5.0 mi Calm Calm - N/A   Overcast
8:52 PM 37.9 °F - 35.1 °F 89% 29.99 in 5.0 mi Calm Calm - N/A   Overcast
9:52 PM 37.0 °F 32.4 °F 35.1 °F 93% 29.99 in 4.0 mi SW 5.8 mph - N/A   Overcast
10:35 PM 37.9 °F 35.5 °F 36.0 °F 93% 29.98 in 5.0 mi SW 3.5 mph - N/A   Overcast
10:52 PM 37.9 °F 35.5 °F 36.0 °F 93% 30.01 in 4.0 mi WSW 3.5 mph - N/A   Overcast
11:16 PM 37.9 °F - 36.0 °F 93% 29.99 in 5.0 mi Calm Calm - N/A   Overcast